#datetime,building,power
2023-06-22T00:00:00,atd,23.20
2023-06-22T00:01:00,atd,22.70
2023-06-22T00:02:00,atd,23.21
2023-06-22T00:03:00,atd,22.35
2023-06-22T00:04:00,atd,24.59
2023-06-22T00:05:00,atd,23.78
2023-06-22T00:06:00,atd,21.26
2023-06-22T00:07:00,atd,18.89
2023-06-22T00:08:00,atd,20.61
2023-06-22T00:09:00,atd,23.51
2023-06-22T00:10:00,atd,23.54
2023-06-22T00:11:00,atd,21.94
2023-06-22T00:12:00,atd,19.13
2023-06-22T00:13:00,atd,23.96
2023-06-22T00:14:00,atd,24.83
2023-06-22T00:15:00,atd,21.57
2023-06-22T00:16:00,atd,20.62
2023-06-22T00:17:00,atd,21.46
2023-06-22T00:18:00,atd,20.31
2023-06-22T00:19:00,atd,18.06
2023-06-22T00:20:00,atd,25.05
2023-06-22T00:21:00,atd,21.74
2023-06-22T00:22:00,atd,20.54
2023-06-22T00:23:00,atd,16.56
2023-06-22T00:24:00,atd,18.59
2023-06-22T00:25:00,atd,17.39
2023-06-22T00:26:00,atd,18.22
2023-06-22T00:27:00,atd,17.92
2023-06-22T00:28:00,atd,22.34
2023-06-22T00:29:00,atd,19.30
2023-06-22T00:30:00,atd,21.75
2023-06-22T00:31:00,atd,33.08
2023-06-22T00:32:00,atd,19.84
2023-06-22T00:33:00,atd,16.59
2023-06-22T00:34:00,atd,15.92
2023-06-22T00:35:00,atd,14.31
2023-06-22T00:36:00,atd,20.57
2023-06-22T00:37:00,atd,16.01
2023-06-22T00:38:00,atd,18.48
2023-06-22T00:39:00,atd,17.02
2023-06-22T00:40:00,atd,20.41
2023-06-22T00:41:00,atd,17.47
2023-06-22T00:42:00,atd,17.08
2023-06-22T00:43:00,atd,15.58
2023-06-22T00:44:00,atd,19.13
2023-06-22T00:45:00,atd,22.53
2023-06-22T00:46:00,atd,35.70
2023-06-22T00:47:00,atd,33.87
2023-06-22T00:48:00,atd,34.75
2023-06-22T00:49:00,atd,33.47
2023-06-22T00:50:00,atd,34.66
2023-06-22T00:51:00,atd,21.87
2023-06-22T00:52:00,atd,15.94
2023-06-22T00:53:00,atd,15.88
2023-06-22T00:54:00,atd,14.30
2023-06-22T00:55:00,atd,17.13
2023-06-22T00:56:00,atd,17.37
2023-06-22T00:57:00,atd,18.66
2023-06-22T00:58:00,atd,18.51
2023-06-22T00:59:00,atd,19.41
2023-06-22T01:00:00,atd,22.11
2023-06-22T01:01:00,atd,18.96
2023-06-22T01:02:00,atd,18.56
2023-06-22T01:03:00,atd,18.43
2023-06-22T01:04:00,atd,15.88
2023-06-22T01:05:00,atd,17.24
2023-06-22T01:06:00,atd,14.80
2023-06-22T01:07:00,atd,17.39
2023-06-22T01:08:00,atd,17.57
2023-06-22T01:09:00,atd,18.75
2023-06-22T01:10:00,atd,19.39
2023-06-22T01:11:00,atd,21.03
2023-06-22T01:12:00,atd,20.28
2023-06-22T01:13:00,atd,22.19
2023-06-22T01:14:00,atd,21.09
2023-06-22T01:15:00,atd,21.80
2023-06-22T01:16:00,atd,21.36
2023-06-22T01:17:00,atd,21.62
2023-06-22T01:18:00,atd,22.27
2023-06-22T01:19:00,atd,24.81
2023-06-22T01:20:00,atd,23.31
2023-06-22T01:21:00,atd,21.50
2023-06-22T01:22:00,atd,22.87
2023-06-22T01:23:00,atd,22.68
2023-06-22T01:24:00,atd,21.10
2023-06-22T01:25:00,atd,18.94
2023-06-22T01:26:00,atd,20.20
2023-06-22T01:27:00,atd,19.55
2023-06-22T01:28:00,atd,19.48
2023-06-22T01:29:00,atd,25.03
2023-06-22T01:30:00,atd,22.51
2023-06-22T01:31:00,atd,21.81
2023-06-22T01:32:00,atd,21.33
2023-06-22T01:33:00,atd,18.90
2023-06-22T01:34:00,atd,20.64
2023-06-22T01:35:00,atd,16.74
2023-06-22T01:36:00,atd,18.29
2023-06-22T01:37:00,atd,18.65
2023-06-22T01:38:00,atd,19.99
2023-06-22T01:39:00,atd,16.33
2023-06-22T01:40:00,atd,16.25
2023-06-22T01:41:00,atd,18.52
2023-06-22T01:42:00,atd,20.37
2023-06-22T01:43:00,atd,16.67
2023-06-22T01:44:00,atd,18.70
2023-06-22T01:45:00,atd,18.26
2023-06-22T01:46:00,atd,18.11
2023-06-22T01:47:00,atd,32.72
2023-06-22T01:48:00,atd,18.85
2023-06-22T01:49:00,atd,20.77
2023-06-22T01:50:00,atd,20.25
2023-06-22T01:51:00,atd,19.47
2023-06-22T01:52:00,atd,18.20
2023-06-22T01:53:00,atd,16.80
2023-06-22T01:54:00,atd,14.47
2023-06-22T01:55:00,atd,15.97
2023-06-22T01:56:00,atd,15.73
2023-06-22T01:57:00,atd,17.53
2023-06-22T01:58:00,atd,18.40
2023-06-22T01:59:00,atd,21.38
2023-06-22T02:00:00,atd,19.26
2023-06-22T02:01:00,atd,20.06
2023-06-22T02:02:00,atd,20.91
2023-06-22T02:03:00,atd,20.77
2023-06-22T02:04:00,atd,23.31
2023-06-22T02:05:00,atd,22.89
2023-06-22T02:06:00,atd,24.35
2023-06-22T02:07:00,atd,21.46
2023-06-22T02:08:00,atd,18.93
2023-06-22T02:09:00,atd,25.42
2023-06-22T02:10:00,atd,21.39
2023-06-22T02:11:00,atd,20.10
2023-06-22T02:12:00,atd,24.21
2023-06-22T02:13:00,atd,21.76
2023-06-22T02:14:00,atd,21.10
2023-06-22T02:15:00,atd,21.29
2023-06-22T02:16:00,atd,18.93
2023-06-22T02:17:00,atd,17.01
2023-06-22T02:18:00,atd,17.33
2023-06-22T02:19:00,atd,17.46
2023-06-22T02:20:00,atd,17.80
2023-06-22T02:21:00,atd,21.19
2023-06-22T02:22:00,atd,23.28
2023-06-22T02:23:00,atd,25.39
2023-06-22T02:24:00,atd,25.42
2023-06-22T02:25:00,atd,23.46
2023-06-22T02:26:00,atd,24.36
2023-06-22T02:27:00,atd,30.18
2023-06-22T02:28:00,atd,40.18
2023-06-22T02:29:00,atd,37.65
2023-06-22T02:30:00,atd,29.41
2023-06-22T02:31:00,atd,26.08
2023-06-22T02:32:00,atd,17.39
2023-06-22T02:33:00,atd,18.15
2023-06-22T02:34:00,atd,18.45
2023-06-22T02:35:00,atd,18.08
2023-06-22T02:36:00,atd,19.99
2023-06-22T02:37:00,atd,19.97
2023-06-22T02:38:00,atd,24.34
2023-06-22T02:39:00,atd,27.37
2023-06-22T02:40:00,atd,26.05
2023-06-22T02:41:00,atd,24.02
2023-06-22T02:42:00,atd,24.29
2023-06-22T02:43:00,atd,23.48
2023-06-22T02:44:00,atd,18.84
2023-06-22T02:45:00,atd,18.85
2023-06-22T02:46:00,atd,19.04
2023-06-22T02:47:00,atd,21.22
2023-06-22T02:48:00,atd,20.89
2023-06-22T02:49:00,atd,20.81
2023-06-22T02:50:00,atd,18.14
2023-06-22T02:51:00,atd,20.55
2023-06-22T02:52:00,atd,16.50
2023-06-22T02:53:00,atd,18.21
2023-06-22T02:54:00,atd,18.66
2023-06-22T02:55:00,atd,22.33
2023-06-22T02:56:00,atd,20.89
2023-06-22T02:57:00,atd,19.40
2023-06-22T02:58:00,atd,19.19
2023-06-22T02:59:00,atd,17.70
2023-06-22T03:00:00,atd,17.52
2023-06-22T03:01:00,atd,15.70
2023-06-22T03:02:00,atd,16.29
2023-06-22T03:03:00,atd,16.54
2023-06-22T03:04:00,atd,15.19
2023-06-22T03:05:00,atd,27.98
2023-06-22T03:06:00,atd,16.27
2023-06-22T03:07:00,atd,16.41
2023-06-22T03:08:00,atd,18.89
2023-06-22T03:09:00,atd,19.68
2023-06-22T03:10:00,atd,19.84
2023-06-22T03:11:00,atd,19.06
2023-06-22T03:12:00,atd,22.21
2023-06-22T03:13:00,atd,21.16
2023-06-22T03:14:00,atd,16.54
2023-06-22T03:15:00,atd,19.83
2023-06-22T03:16:00,atd,19.29
2023-06-22T03:17:00,atd,19.73
2023-06-22T03:18:00,atd,17.38
2023-06-22T03:19:00,atd,19.19
2023-06-22T03:20:00,atd,17.58
2023-06-22T03:21:00,atd,18.96
2023-06-22T03:22:00,atd,19.14
2023-06-22T03:23:00,atd,16.49
2023-06-22T03:24:00,atd,31.29
2023-06-22T03:25:00,atd,18.07
2023-06-22T03:26:00,atd,20.77
2023-06-22T03:27:00,atd,18.96
2023-06-22T03:28:00,atd,22.51
2023-06-22T03:29:00,atd,16.78
2023-06-22T03:30:00,atd,18.96
2023-06-22T03:31:00,atd,17.05
2023-06-22T03:32:00,atd,17.99
2023-06-22T03:33:00,atd,18.13
2023-06-22T03:34:00,atd,18.59
2023-06-22T03:35:00,atd,18.23
2023-06-22T03:36:00,atd,18.10
2023-06-22T03:37:00,atd,19.84
2023-06-22T03:38:00,atd,19.11
2023-06-22T03:39:00,atd,23.25
2023-06-22T03:40:00,atd,20.92
2023-06-22T03:41:00,atd,23.79
2023-06-22T03:42:00,atd,23.57
2023-06-22T03:43:00,atd,22.78
2023-06-22T03:44:00,atd,23.01
2023-06-22T03:45:00,atd,21.92
2023-06-22T03:46:00,atd,23.90
2023-06-22T03:47:00,atd,20.99
2023-06-22T03:48:00,atd,21.62
2023-06-22T03:49:00,atd,24.21
2023-06-22T03:50:00,atd,22.06
2023-06-22T03:51:00,atd,20.24
2023-06-22T03:52:00,atd,19.32
2023-06-22T03:53:00,atd,20.58
2023-06-22T03:54:00,atd,19.05
2023-06-22T03:55:00,atd,19.78
2023-06-22T03:56:00,atd,21.82
2023-06-22T03:57:00,atd,18.37
2023-06-22T03:58:00,atd,23.34
2023-06-22T03:59:00,atd,25.69
2023-06-22T04:00:00,atd,19.55
2023-06-22T04:01:00,atd,19.00
2023-06-22T04:02:00,atd,16.93
2023-06-22T04:03:00,atd,18.39
2023-06-22T04:04:00,atd,20.34
2023-06-22T04:05:00,atd,19.50
2023-06-22T04:06:00,atd,18.24
2023-06-22T04:07:00,atd,15.90
2023-06-22T04:08:00,atd,22.74
2023-06-22T04:09:00,atd,24.71
2023-06-22T04:10:00,atd,25.70
2023-06-22T04:11:00,atd,24.16
2023-06-22T04:12:00,atd,37.57
2023-06-22T04:13:00,atd,37.35
2023-06-22T04:14:00,atd,35.48
2023-06-22T04:15:00,atd,34.60
2023-06-22T04:16:00,atd,20.80
2023-06-22T04:17:00,atd,18.52
2023-06-22T04:18:00,atd,17.41
2023-06-22T04:19:00,atd,18.15
2023-06-22T04:20:00,atd,16.54
2023-06-22T04:21:00,atd,16.55
2023-06-22T04:22:00,atd,19.08
2023-06-22T04:23:00,atd,16.56
2023-06-22T04:24:00,atd,20.04
2023-06-22T04:25:00,atd,17.56
2023-06-22T04:26:00,atd,19.89
2023-06-22T04:27:00,atd,19.51
2023-06-22T04:28:00,atd,22.55
2023-06-22T04:29:00,atd,23.04
2023-06-22T04:30:00,atd,23.50
2023-06-22T04:31:00,atd,36.72
2023-06-22T04:32:00,atd,17.73
2023-06-22T04:33:00,atd,17.76
2023-06-22T04:34:00,atd,16.28
2023-06-22T04:35:00,atd,19.38
2023-06-22T04:36:00,atd,18.66
2023-06-22T04:37:00,atd,19.66
2023-06-22T04:38:00,atd,21.03
2023-06-22T04:39:00,atd,20.54
2023-06-22T04:40:00,atd,16.13
2023-06-22T04:41:00,atd,31.76
2023-06-22T04:42:00,atd,21.63
2023-06-22T04:43:00,atd,20.27
2023-06-22T04:44:00,atd,19.96
2023-06-22T04:45:00,atd,21.39
2023-06-22T04:46:00,atd,17.66
2023-06-22T04:47:00,atd,17.81
2023-06-22T04:48:00,atd,17.23
2023-06-22T04:49:00,atd,18.06
2023-06-22T04:50:00,atd,17.47
2023-06-22T04:51:00,atd,16.77
2023-06-22T04:52:00,atd,23.15
2023-06-22T04:53:00,atd,19.02
2023-06-22T04:54:00,atd,17.35
2023-06-22T04:55:00,atd,19.81
2023-06-22T04:56:00,atd,21.41
2023-06-22T04:57:00,atd,20.19
2023-06-22T04:58:00,atd,23.33
2023-06-22T04:59:00,atd,21.08
2023-06-22T05:00:00,atd,33.37
2023-06-22T05:01:00,atd,21.54
2023-06-22T05:02:00,atd,17.60
2023-06-22T05:03:00,atd,16.70
2023-06-22T05:04:00,atd,16.68
2023-06-22T05:05:00,atd,18.30
2023-06-22T05:06:00,atd,17.55
2023-06-22T05:07:00,atd,20.75
2023-06-22T05:08:00,atd,21.00
2023-06-22T05:09:00,atd,20.95
2023-06-22T05:10:00,atd,17.90
2023-06-22T05:11:00,atd,21.12
2023-06-22T05:12:00,atd,19.71
2023-06-22T05:13:00,atd,17.12
2023-06-22T05:14:00,atd,18.44
2023-06-22T05:15:00,atd,17.16
2023-06-22T05:16:00,atd,18.68
2023-06-22T05:17:00,atd,13.85
2023-06-22T05:18:00,atd,15.69
2023-06-22T05:19:00,atd,27.44
2023-06-22T05:20:00,atd,14.97
2023-06-22T05:21:00,atd,17.33
2023-06-22T05:22:00,atd,14.37
2023-06-22T05:23:00,atd,17.12
2023-06-22T05:24:00,atd,21.92
2023-06-22T05:25:00,atd,20.91
2023-06-22T05:26:00,atd,17.36
2023-06-22T05:27:00,atd,21.55
2023-06-22T05:28:00,atd,19.50
2023-06-22T05:29:00,atd,20.49
2023-06-22T05:30:00,atd,16.13
2023-06-22T05:31:00,atd,26.43
2023-06-22T05:32:00,atd,30.29
2023-06-22T05:33:00,atd,65.69
2023-06-22T05:34:00,atd,70.14
2023-06-22T05:35:00,atd,73.15
2023-06-22T05:36:00,atd,69.71
2023-06-22T05:37:00,atd,67.20
2023-06-22T05:38:00,atd,76.39
2023-06-22T05:39:00,atd,66.57
2023-06-22T05:40:00,atd,69.62
2023-06-22T05:41:00,atd,72.76
2023-06-22T05:42:00,atd,71.19
2023-06-22T05:43:00,atd,73.67
2023-06-22T05:44:00,atd,70.73
2023-06-22T05:45:00,atd,74.92
2023-06-22T05:46:00,atd,75.08
2023-06-22T05:47:00,atd,73.81
2023-06-22T05:48:00,atd,72.07
2023-06-22T05:49:00,atd,70.50
2023-06-22T05:50:00,atd,71.75
2023-06-22T05:51:00,atd,70.54
2023-06-22T05:52:00,atd,82.84
2023-06-22T05:53:00,atd,43.28
2023-06-22T05:54:00,atd,45.40
2023-06-22T05:55:00,atd,43.26
2023-06-22T05:56:00,atd,45.44
2023-06-22T05:57:00,atd,34.83
2023-06-22T05:58:00,atd,41.23
2023-06-22T05:59:00,atd,40.23
2023-06-22T06:00:00,atd,40.61
2023-06-22T06:01:00,atd,40.54
2023-06-22T06:02:00,atd,39.41
2023-06-22T06:03:00,atd,47.82
2023-06-22T06:04:00,atd,88.71
2023-06-22T06:05:00,atd,100.73
2023-06-22T06:06:00,atd,43.90
2023-06-22T06:07:00,atd,44.15
2023-06-22T06:08:00,atd,47.01
2023-06-22T06:09:00,atd,60.29
2023-06-22T06:10:00,atd,46.82
2023-06-22T06:11:00,atd,47.58
2023-06-22T06:12:00,atd,47.07
2023-06-22T06:13:00,atd,45.80
2023-06-22T06:14:00,atd,59.99
2023-06-22T06:15:00,atd,49.47
2023-06-22T06:16:00,atd,47.64
2023-06-22T06:17:00,atd,48.70
2023-06-22T06:18:00,atd,51.89
2023-06-22T06:19:00,atd,46.39
2023-06-22T06:20:00,atd,45.26
2023-06-22T06:21:00,atd,46.75
2023-06-22T06:22:00,atd,48.64
2023-06-22T06:23:00,atd,52.43
2023-06-22T06:24:00,atd,65.40
2023-06-22T06:25:00,atd,48.35
2023-06-22T06:26:00,atd,87.72
2023-06-22T06:27:00,atd,87.17
2023-06-22T06:28:00,atd,85.71
2023-06-22T06:29:00,atd,89.10
2023-06-22T06:30:00,atd,45.59
2023-06-22T06:31:00,atd,55.45
2023-06-22T06:32:00,atd,46.19
2023-06-22T06:33:00,atd,48.54
2023-06-22T06:34:00,atd,48.64
2023-06-22T06:35:00,atd,38.23
2023-06-22T06:36:00,atd,41.60
2023-06-22T06:37:00,atd,28.12
2023-06-22T06:38:00,atd,38.58
2023-06-22T06:39:00,atd,38.71
2023-06-22T06:40:00,atd,39.92
2023-06-22T06:41:00,atd,37.86
2023-06-22T06:42:00,atd,77.23
2023-06-22T06:43:00,atd,78.81
2023-06-22T06:44:00,atd,81.84
2023-06-22T06:45:00,atd,42.66
2023-06-22T06:46:00,atd,31.10
2023-06-22T06:47:00,atd,29.93
2023-06-22T06:48:00,atd,31.26
2023-06-22T06:49:00,atd,33.08
2023-06-22T06:50:00,atd,30.22
2023-06-22T06:51:00,atd,30.46
2023-06-22T06:52:00,atd,40.60
2023-06-22T06:53:00,atd,37.76
2023-06-22T06:54:00,atd,40.34
2023-06-22T06:55:00,atd,30.25
2023-06-22T06:56:00,atd,30.26
2023-06-22T06:57:00,atd,31.82
2023-06-22T06:58:00,atd,29.83
2023-06-22T06:59:00,atd,30.99
2023-06-22T07:00:00,atd,68.37
2023-06-22T07:01:00,atd,73.13
2023-06-22T07:02:00,atd,73.95
2023-06-22T07:03:00,atd,48.75
2023-06-22T07:04:00,atd,31.65
2023-06-22T07:05:00,atd,33.58
2023-06-22T07:06:00,atd,28.54
2023-06-22T07:07:00,atd,27.68
2023-06-22T07:08:00,atd,41.77
2023-06-22T07:09:00,atd,38.21
2023-06-22T07:10:00,atd,39.87
2023-06-22T07:11:00,atd,36.71
2023-06-22T07:12:00,atd,26.91
2023-06-22T07:13:00,atd,30.53
2023-06-22T07:14:00,atd,49.58
2023-06-22T07:15:00,atd,84.03
2023-06-22T07:16:00,atd,68.91
2023-06-22T07:17:00,atd,75.00
2023-06-22T07:18:00,atd,91.19
2023-06-22T07:19:00,atd,29.05
2023-06-22T07:20:00,atd,28.21
2023-06-22T07:21:00,atd,29.05
2023-06-22T07:22:00,atd,33.67
2023-06-22T07:23:00,atd,27.64
2023-06-22T07:24:00,atd,28.07
2023-06-22T07:25:00,atd,27.15
2023-06-22T07:26:00,atd,29.23
2023-06-22T07:27:00,atd,27.48
2023-06-22T07:28:00,atd,28.14
2023-06-22T07:29:00,atd,29.62
2023-06-22T07:30:00,atd,82.79
2023-06-22T07:31:00,atd,72.84
2023-06-22T07:32:00,atd,78.70
2023-06-22T07:33:00,atd,80.52
2023-06-22T07:34:00,atd,78.69
2023-06-22T07:35:00,atd,82.02
2023-06-22T07:36:00,atd,83.33
2023-06-22T07:37:00,atd,34.56
2023-06-22T07:38:00,atd,31.66
2023-06-22T07:39:00,atd,33.91
2023-06-22T07:40:00,atd,29.78
2023-06-22T07:41:00,atd,31.15
2023-06-22T07:42:00,atd,29.25
2023-06-22T07:43:00,atd,30.34
2023-06-22T07:44:00,atd,31.35
2023-06-22T07:45:00,atd,28.81
2023-06-22T07:46:00,atd,61.75
2023-06-22T07:47:00,atd,67.22
2023-06-22T07:48:00,atd,66.51
2023-06-22T07:49:00,atd,66.20
2023-06-22T07:50:00,atd,65.88
2023-06-22T07:51:00,atd,65.37
2023-06-22T07:52:00,atd,65.23
2023-06-22T07:53:00,atd,29.84
2023-06-22T07:54:00,atd,30.27
2023-06-22T07:55:00,atd,32.47
2023-06-22T07:56:00,atd,29.20
2023-06-22T07:57:00,atd,30.56
2023-06-22T07:58:00,atd,31.20
2023-06-22T07:59:00,atd,34.71
2023-06-22T08:00:00,atd,32.70
2023-06-22T08:01:00,atd,73.91
2023-06-22T08:02:00,atd,75.51
2023-06-22T08:03:00,atd,73.71
2023-06-22T08:04:00,atd,71.48
2023-06-22T08:05:00,atd,82.63
2023-06-22T08:06:00,atd,72.78
2023-06-22T08:07:00,atd,75.45
2023-06-22T08:08:00,atd,75.77
2023-06-22T08:09:00,atd,75.74
2023-06-22T08:10:00,atd,76.87
2023-06-22T08:11:00,atd,32.48
2023-06-22T08:12:00,atd,32.44
2023-06-22T08:13:00,atd,35.24
2023-06-22T08:14:00,atd,33.26
2023-06-22T08:15:00,atd,31.20
2023-06-22T08:16:00,atd,34.33
2023-06-22T08:17:00,atd,32.29
2023-06-22T08:18:00,atd,56.88
2023-06-22T08:19:00,atd,65.79
2023-06-22T08:20:00,atd,67.40
2023-06-22T08:21:00,atd,69.89
2023-06-22T08:22:00,atd,68.84
2023-06-22T08:23:00,atd,67.28
2023-06-22T08:24:00,atd,66.98
2023-06-22T08:25:00,atd,63.13
2023-06-22T08:26:00,atd,67.52
2023-06-22T08:27:00,atd,65.57
2023-06-22T08:28:00,atd,66.82
2023-06-22T08:29:00,atd,68.01
2023-06-22T08:30:00,atd,70.09
2023-06-22T08:31:00,atd,28.64
2023-06-22T08:32:00,atd,27.31
2023-06-22T08:33:00,atd,32.53
2023-06-22T08:34:00,atd,32.04
2023-06-22T08:35:00,atd,30.96
2023-06-22T08:36:00,atd,31.70
2023-06-22T08:37:00,atd,28.68
2023-06-22T08:38:00,atd,68.06
2023-06-22T08:39:00,atd,70.91
2023-06-22T08:40:00,atd,70.40
2023-06-22T08:41:00,atd,73.36
2023-06-22T08:42:00,atd,75.77
2023-06-22T08:43:00,atd,80.00
2023-06-22T08:44:00,atd,77.05
2023-06-22T08:45:00,atd,79.17
2023-06-22T08:46:00,atd,78.10
2023-06-22T08:47:00,atd,78.47
2023-06-22T08:48:00,atd,74.60
2023-06-22T08:49:00,atd,30.86
2023-06-22T08:50:00,atd,34.21
2023-06-22T08:51:00,atd,37.71
2023-06-22T08:52:00,atd,34.00
2023-06-22T08:53:00,atd,32.11
2023-06-22T08:54:00,atd,32.63
2023-06-22T08:55:00,atd,66.65
2023-06-22T08:56:00,atd,75.43
2023-06-22T08:57:00,atd,68.41
2023-06-22T08:58:00,atd,72.97
2023-06-22T08:59:00,atd,72.80
2023-06-22T09:00:00,atd,71.22
2023-06-22T09:01:00,atd,68.38
2023-06-22T09:02:00,atd,76.42
2023-06-22T09:03:00,atd,80.54
2023-06-22T09:04:00,atd,81.30
2023-06-22T09:05:00,atd,82.65
2023-06-22T09:06:00,atd,70.33
2023-06-22T09:07:00,atd,70.85
2023-06-22T09:08:00,atd,68.12
2023-06-22T09:09:00,atd,72.15
2023-06-22T09:10:00,atd,72.62
2023-06-22T09:11:00,atd,71.40
2023-06-22T09:12:00,atd,74.12
2023-06-22T09:13:00,atd,83.84
2023-06-22T09:14:00,atd,69.11
2023-06-22T09:15:00,atd,70.92
2023-06-22T09:16:00,atd,69.68
2023-06-22T09:17:00,atd,38.02
2023-06-22T09:18:00,atd,33.00
2023-06-22T09:19:00,atd,33.27
2023-06-22T09:20:00,atd,31.51
2023-06-22T09:21:00,atd,31.89
2023-06-22T09:22:00,atd,31.26
2023-06-22T09:23:00,atd,76.48
2023-06-22T09:24:00,atd,79.39
2023-06-22T09:25:00,atd,80.50
2023-06-22T09:26:00,atd,81.13
2023-06-22T09:27:00,atd,77.25
2023-06-22T09:28:00,atd,80.28
2023-06-22T09:29:00,atd,107.44
2023-06-22T09:30:00,atd,110.17
2023-06-22T09:31:00,atd,117.61
2023-06-22T09:32:00,atd,125.75
2023-06-22T09:33:00,atd,83.24
2023-06-22T09:34:00,atd,84.06
2023-06-22T09:35:00,atd,81.19
2023-06-22T09:36:00,atd,82.44
2023-06-22T09:37:00,atd,33.02
2023-06-22T09:38:00,atd,33.25
2023-06-22T09:39:00,atd,37.15
2023-06-22T09:40:00,atd,37.33
2023-06-22T09:41:00,atd,36.33
2023-06-22T09:42:00,atd,35.53
2023-06-22T09:43:00,atd,35.31
2023-06-22T09:44:00,atd,79.75
2023-06-22T09:45:00,atd,78.55
2023-06-22T09:46:00,atd,90.41
2023-06-22T09:47:00,atd,78.91
2023-06-22T09:48:00,atd,79.83
2023-06-22T09:49:00,atd,83.77
2023-06-22T09:50:00,atd,86.47
2023-06-22T09:51:00,atd,81.15
2023-06-22T09:52:00,atd,85.15
2023-06-22T09:53:00,atd,85.74
2023-06-22T09:54:00,atd,94.76
2023-06-22T09:55:00,atd,90.48
2023-06-22T09:56:00,atd,84.16
2023-06-22T09:57:00,atd,86.09
2023-06-22T09:58:00,atd,81.17
2023-06-22T09:59:00,atd,80.39
2023-06-22T10:00:00,atd,36.26
2023-06-22T10:01:00,atd,38.29
2023-06-22T10:02:00,atd,46.65
2023-06-22T10:03:00,atd,34.51
2023-06-22T10:04:00,atd,34.87
2023-06-22T10:05:00,atd,37.98
2023-06-22T10:06:00,atd,71.67
2023-06-22T10:07:00,atd,73.14
2023-06-22T10:08:00,atd,85.09
2023-06-22T10:09:00,atd,88.57
2023-06-22T10:10:00,atd,101.06
2023-06-22T10:11:00,atd,92.44
2023-06-22T10:12:00,atd,81.66
2023-06-22T10:13:00,atd,82.11
2023-06-22T10:14:00,atd,88.51
2023-06-22T10:15:00,atd,84.27
2023-06-22T10:16:00,atd,82.62
2023-06-22T10:17:00,atd,83.49
2023-06-22T10:18:00,atd,85.85
2023-06-22T10:19:00,atd,97.61
2023-06-22T10:20:00,atd,98.62
2023-06-22T10:21:00,atd,113.70
2023-06-22T10:22:00,atd,100.89
2023-06-22T10:23:00,atd,89.15
2023-06-22T10:24:00,atd,88.87
2023-06-22T10:25:00,atd,92.67
2023-06-22T10:26:00,atd,92.55
2023-06-22T10:27:00,atd,90.21
2023-06-22T10:28:00,atd,86.07
2023-06-22T10:29:00,atd,85.25
2023-06-22T10:30:00,atd,76.96
2023-06-22T10:31:00,atd,75.62
2023-06-22T10:32:00,atd,77.43
2023-06-22T10:33:00,atd,77.53
2023-06-22T10:34:00,atd,77.89
2023-06-22T10:35:00,atd,78.44
2023-06-22T10:36:00,atd,76.20
2023-06-22T10:37:00,atd,74.80
2023-06-22T10:38:00,atd,80.33
2023-06-22T10:39:00,atd,86.09
2023-06-22T10:40:00,atd,88.87
2023-06-22T10:41:00,atd,88.11
2023-06-22T10:42:00,atd,90.34
2023-06-22T10:43:00,atd,93.29
2023-06-22T10:44:00,atd,91.79
2023-06-22T10:45:00,atd,92.62
2023-06-22T10:46:00,atd,90.28
2023-06-22T10:47:00,atd,90.18
2023-06-22T10:48:00,atd,91.12
2023-06-22T10:49:00,atd,93.72
2023-06-22T10:50:00,atd,93.06
2023-06-22T10:51:00,atd,97.27
2023-06-22T10:52:00,atd,110.89
2023-06-22T10:53:00,atd,100.31
2023-06-22T10:54:00,atd,97.43
2023-06-22T10:55:00,atd,100.66
2023-06-22T10:56:00,atd,99.79
2023-06-22T10:57:00,atd,101.76
2023-06-22T10:58:00,atd,97.86
2023-06-22T10:59:00,atd,98.67
2023-06-22T11:00:00,atd,97.87
2023-06-22T11:01:00,atd,95.41
2023-06-22T11:02:00,atd,89.06
2023-06-22T11:03:00,atd,81.52
2023-06-22T11:04:00,atd,80.52
2023-06-22T11:05:00,atd,81.49
2023-06-22T11:06:00,atd,80.32
2023-06-22T11:07:00,atd,78.12
2023-06-22T11:08:00,atd,78.69
2023-06-22T11:09:00,atd,88.41
2023-06-22T11:10:00,atd,81.86
2023-06-22T11:11:00,atd,83.90
2023-06-22T11:12:00,atd,80.92
2023-06-22T11:13:00,atd,79.38
2023-06-22T11:14:00,atd,77.95
2023-06-22T11:15:00,atd,79.96
2023-06-22T11:16:00,atd,76.20
2023-06-22T11:17:00,atd,77.29
2023-06-22T11:18:00,atd,76.14
2023-06-22T11:19:00,atd,76.69
2023-06-22T11:20:00,atd,83.35
2023-06-22T11:21:00,atd,82.62
2023-06-22T11:22:00,atd,88.02
2023-06-22T11:23:00,atd,86.29
2023-06-22T11:24:00,atd,87.10
2023-06-22T11:25:00,atd,91.43
2023-06-22T11:26:00,atd,90.95
2023-06-22T11:27:00,atd,88.99
2023-06-22T11:28:00,atd,88.84
2023-06-22T11:29:00,atd,84.17
2023-06-22T11:30:00,atd,81.17
2023-06-22T11:31:00,atd,83.18
2023-06-22T11:32:00,atd,90.25
2023-06-22T11:33:00,atd,86.75
2023-06-22T11:34:00,atd,90.37
2023-06-22T11:35:00,atd,85.15
2023-06-22T11:36:00,atd,92.74
2023-06-22T11:37:00,atd,93.91
2023-06-22T11:38:00,atd,94.22
2023-06-22T11:39:00,atd,97.80
2023-06-22T11:40:00,atd,94.20
2023-06-22T11:41:00,atd,98.79
2023-06-22T11:42:00,atd,95.63
2023-06-22T11:43:00,atd,91.81
2023-06-22T11:44:00,atd,91.32
2023-06-22T11:45:00,atd,90.47
2023-06-22T11:46:00,atd,89.13
2023-06-22T11:47:00,atd,87.15
2023-06-22T11:48:00,atd,91.98
2023-06-22T11:49:00,atd,93.33
2023-06-22T11:50:00,atd,94.52
2023-06-22T11:51:00,atd,87.20
2023-06-22T11:52:00,atd,83.87
2023-06-22T11:53:00,atd,89.83
2023-06-22T11:54:00,atd,90.22
2023-06-22T11:55:00,atd,92.69
2023-06-22T11:56:00,atd,92.79
2023-06-22T11:57:00,atd,96.08
2023-06-22T11:58:00,atd,86.42
2023-06-22T11:59:00,atd,85.44
2023-06-22T12:00:00,atd,85.27
2023-06-22T12:01:00,atd,85.05
2023-06-22T12:02:00,atd,79.58
2023-06-22T12:03:00,atd,80.39
2023-06-22T12:04:00,atd,82.25
2023-06-22T12:05:00,atd,80.06
2023-06-22T12:06:00,atd,80.85
2023-06-22T12:07:00,atd,82.15
2023-06-22T12:08:00,atd,94.89
2023-06-22T12:09:00,atd,98.28
2023-06-22T12:10:00,atd,98.97
2023-06-22T12:11:00,atd,102.01
2023-06-22T12:12:00,atd,97.52
2023-06-22T12:13:00,atd,97.65
2023-06-22T12:14:00,atd,97.84
2023-06-22T12:15:00,atd,100.97
2023-06-22T12:16:00,atd,99.95
2023-06-22T12:17:00,atd,98.92
2023-06-22T12:18:00,atd,100.47
2023-06-22T12:19:00,atd,100.70
2023-06-22T12:20:00,atd,93.02
2023-06-22T12:21:00,atd,83.56
2023-06-22T12:22:00,atd,78.17
2023-06-22T12:23:00,atd,88.48
2023-06-22T12:24:00,atd,94.55
2023-06-22T12:25:00,atd,94.28
2023-06-22T12:26:00,atd,97.72
2023-06-22T12:27:00,atd,102.07
2023-06-22T12:28:00,atd,110.24
2023-06-22T12:29:00,atd,108.54
2023-06-22T12:30:00,atd,105.80
2023-06-22T12:31:00,atd,108.32
2023-06-22T12:32:00,atd,105.55
2023-06-22T12:33:00,atd,102.39
2023-06-22T12:34:00,atd,100.85
2023-06-22T12:35:00,atd,99.82
2023-06-22T12:36:00,atd,104.89
2023-06-22T12:37:00,atd,101.95
2023-06-22T12:38:00,atd,103.22
2023-06-22T12:39:00,atd,100.17
2023-06-22T12:40:00,atd,101.02
2023-06-22T12:41:00,atd,103.10
2023-06-22T12:42:00,atd,102.78
2023-06-22T12:43:00,atd,105.75
2023-06-22T12:44:00,atd,103.15
2023-06-22T12:45:00,atd,103.26
2023-06-22T12:46:00,atd,104.30
2023-06-22T12:47:00,atd,112.68
2023-06-22T12:48:00,atd,111.55
2023-06-22T12:49:00,atd,110.72
2023-06-22T12:50:00,atd,111.65
2023-06-22T12:51:00,atd,116.55
2023-06-22T12:52:00,atd,117.22
2023-06-22T12:53:00,atd,113.14
2023-06-22T12:54:00,atd,115.41
2023-06-22T12:55:00,atd,103.55
2023-06-22T12:56:00,atd,101.64
2023-06-22T12:57:00,atd,89.87
2023-06-22T12:58:00,atd,91.12
2023-06-22T12:59:00,atd,96.78
2023-06-22T13:00:00,atd,103.74
2023-06-22T13:01:00,atd,104.60
2023-06-22T13:02:00,atd,105.58
2023-06-22T13:03:00,atd,107.34
2023-06-22T13:04:00,atd,105.69
2023-06-22T13:05:00,atd,107.64
2023-06-22T13:06:00,atd,112.34
2023-06-22T13:07:00,atd,109.85
2023-06-22T13:08:00,atd,107.88
2023-06-22T13:09:00,atd,105.94
2023-06-22T13:10:00,atd,104.35
2023-06-22T13:11:00,atd,115.10
2023-06-22T13:12:00,atd,109.61
2023-06-22T13:13:00,atd,101.86
2023-06-22T13:14:00,atd,115.68
2023-06-22T13:15:00,atd,105.12
2023-06-22T13:16:00,atd,118.50